Location: Cella
(44.7333°N, 10.5667°E)
Time: 15:13:57
(UTC+00:00)

ATLAS CENTAUR R/B - Pass Details

Date: 03 March 2021
Orbit: 475 x 670 km, 64.7° (Epoch: 30 March)

Event Time Altitude Azimuth Distance (km) Brightness Sun altitude
Rises 19:58:09 0° 262° (W) 2,520 5.5 -30.4°
Reaches altitude 10° 20:01:02 10° 287° (WNW) 1,647 4.6 -30.9°
Maximum altitude 20:03:10 15° 323° (NW) 1,386 4.0 -31.2°
Enters shadow 20:03:16 15° 325° (NW) 1,387 4.0 -31.2°
